Lid_Strength_Index
7 8 9 11 12 10 14 15 15 13 10 8 7 7 7 7 6 5 5 4 4 4 3 3 3 3 2 2 2 2 2 1
7 7 8 10 9 14 13 17 17 14 13 13 10 8 7 7 6 6 5 4 4 4 3 3 2 2 2 2 2 2 1 1
9 10 11 11 13 12 13 14 16 16 14 9 9 8 7 7 6 6 5 5 4 4 3 3 2 2 2 2 2 2 1 1
10 7 7 8 10 12 15 15 14 14 13 7 7 7 6 6 6 5 5 5 4 4 3 3 3 3 3 2 2 2 1 1
12 10 9 10 8 9 9 13 14 15 13 7 6 6 6 6 6 5 5 5 4 4 4 3 3 3 3 2 2 2 2 2
14 12 10 11 9 9 10 12 13 13 12 9 8 8 7 7 6 6 5 5 5 5 4 3 3 3 3 2 2 2 2 2
10 9 8 9 9 9 11 11 12 10 10 9 8 7 7 6 6 6 5 6 5 5 5 4 3 3 3 2 2 2 2 2
12 9 9 10 8 9 8 9 10 9 10 7 6 6 6 6 6 6 6 7 5 5 4 4 4 3 3 3 2 2 2 2
15 11 11 13 11 9 9 8 9 11 9 7 7 7 6 6 6 6 5 4 5 5 4 4 3 3 3 3 2 2 2 2
13 13 17 11 8 7 9 8 8 8 8 7 7 6 5 5 6 6 5 5 5 6 4 3 3 3 2 2 2 2 3 2
13 14 11 9 8 8 9 10 7 8 7 6 6 6 7 5 5 5 5 5 4 5 6 3 3 3 3 3 3 3 3 3
13 15 16 10 7 6 7 12 7 7 8 8 7 12 10 6 5 6 4 4 3 5 5 3 3 2 3 3 3 3 3 2
12 14 12 8 7 6 14 14 7 7 8 8 9 8 6 5 5 4 4 4 3 4 6 4 3 2 3 3 3 2 2 2
13 15 16 7 7 11 9 7 7 7 7 7 7 6 5 5 6 4 4 4 3 5 5 6 4 3 3 3 2 2 2 3
11 12 7 7 7 6 5 7 7 7 6 6 6 6 7 6 5 5 4 4 3 4 4 3 4 2 3 3 2 2 3 2
10 9 8 6 5 5 5 6 5 5 5 5 6 6 5 5 5 4 4 4 3 4 4 4 2 3 3 2 2 2 2 2
9 9 7 6 6 5 5 4 5 4 5 5 5 5 5 5 5 4 4 4 4 4 4 4 3 3 2 2 2 2 2 2
12 7 8 7 5 4 5 5 5 5 5 4 4 5 4 5 4 4 4 4 4 4 3 5 3 3 2 2 2 2 3 3
8 6 6 6 5 4 5 5 4 4 4 5 4 4 4 4 4 4 4 4 4 6 4 3 3 3 2 2 2 2 3 3